IZ3TCG-13 Weather Reports


Display with metric or nautical units.
time (UTC)temp
F
wind
direction
speed
MPH
gust
MPH
rain 1hr
in
rain 24hr
in
rain mn
in
humidity
%
barometer
mb
20260904223603 74 15 1.0 2.0 0.00 0.00 0.00 82 1010.4
20260904223203 74 360 0.0 2.0 0.00 0.00 0.00 83 1010.5
20260904222803 74 0 0.0 0.0 0.00 0.00 0.00 83 1010.4
20260904222403 74 0 0.0 0.0 0.00 0.00 0.00 83 1010.7
20260904222003 74 0 0.0 0.0 0.00 0.00 0.00 84 1010.5
20260904221814 74 0 0.0 0.0 0.00 0.00 0.00 84 1010.5
20260904221203 74 0 0.0 0.0 0.00 0.00 0.00 83 1010.6
20260904220803 74 0 0.0 0.0 0.00 0.00 0.00 83 1010.5
20260904220403 75 348 0.0 2.0 0.00 0.00 0.00 82 1010.7
20260904220217 75 348 0.0 2.0 0.00 0.00 0.00 82 1010.7
20260904215603 74 292 0.0 2.0 0.00 0.00 0.00 82 1010.6
20260904215203 74 292 0.0 2.0 0.00 0.00 0.00 82 1010.7
20260904214803 75 0 0.0 0.0 0.00 0.00 0.00 82 1010.7
20260904214404 75 0 0.0 0.0 0.00 0.00 0.00 81 1010.6
20260904214003 76 0 0.0 0.0 0.00 0.00 0.00 80 1010.8
20260904213603 76 0 0.0 0.0 0.00 0.00 0.00 79 1010.6
20260904213203 75 0 0.0 0.0 0.00 0.00 0.00 80 1010.7
20260904213017 75 0 0.0 0.0 0.00 0.00 0.00 80 1010.6
20260904212403 76 292 0.0 2.0 0.00 0.00 0.00 79 1010.9
20260904212003 76 292 0.0 2.0 0.00 0.00 0.00 78 1010.9
20260904211603 76 0 0.0 0.0 0.00 0.00 0.00 79 1010.8
20260904211203 76 290 0.0 2.0 0.00 0.00 0.00 78 1010.7
20260904210803 76 289 0.0 2.0 0.00 0.00 0.00 78 1010.9
20260904210403 76 287 1.0 2.0 0.00 0.00 0.00 78 1010.8
20260904210003 76 180 0.0 2.0 0.00 0.00 0.00 79 1010.8
20260904205603 76 180 0.0 2.0 0.00 0.00 0.00 78 1010.7
20260904205203 75 180 0.0 2.0 0.00 0.00 0.00 79 1010.7
20260904204803 74 180 0.0 2.0 0.00 0.00 0.00 81 1010.6
20260904204403 74 0 0.0 0.0 0.00 0.00 0.00 81 1010.7
20260904204004 74 0 0.0 0.0 0.00 0.00 0.00 80 1010.7
20260904203603 75 0 0.0 0.0 0.00 0.00 0.00 79 1010.9
20260904203203 75 0 0.0 0.0 0.00 0.00 0.00 79 1010.7
20260904202803 75 0 0.0 0.0 0.00 0.00 0.00 78 1010.9
20260904202403 75 0 0.0 0.0 0.00 0.00 0.00 78 1010.8
20260904202216 75 0 0.0 0.0 0.00 0.00 0.00 78 1010.9
20260904201603 75 0 0.0 0.0 0.00 0.00 0.00 78 1010.7
20260904201203 75 0 0.0 0.0 0.00 0.00 0.00 78 1010.7
20260904200803 76 0 0.0 0.0 0.00 0.00 0.00 77 1010.9
20260904200403 75 0 0.0 0.0 0.00 0.00 0.00 77 1010.8
20260904200003 75 0 0.0 0.0 0.00 0.00 0.00 78 1010.9
20260904195603 76 0 0.0 0.0 0.00 0.00 0.00 77 1010.8
20260904195203 76 0 0.0 0.0 0.00 0.00 0.00 77 1010.8
20260904194803 76 0 0.0 0.0 0.00 0.00 0.00 77 1010.8
20260904194615 76 0 0.0 0.0 0.00 0.00 0.00 77 1010.9
20260904194003 76 0 0.0 0.0 0.00 0.00 0.00 76 1010.7
20260904193603 76 180 0.0 2.0 0.00 0.00 0.00 76 1010.6
20260904193203 76 180 0.0 2.0 0.00 0.00 0.00 76 1010.7
20260904192803 76 0 0.0 0.0 0.00 0.00 0.00 77 1010.8
20260904192618 76 0 0.0 0.0 0.00 0.00 0.00 77 1010.8
20260904192217 76 0 0.0 0.0 0.00 0.00 0.00 76 1010.7
20260904191603 76 0 0.0 0.0 0.00 0.00 0.00 76 1010.9
20260904191203 77 0 0.0 0.0 0.00 0.00 0.00 76 1010.8
20260904190803 77 0 0.0 0.0 0.00 0.00 0.00 76 1010.7
20260904190403 77 0 0.0 0.0 0.00 0.00 0.00 76 1010.8
20260904190003 77 0 0.0 0.0 0.00 0.00 0.00 75 1010.8
20260904185813 77 0 0.0 0.0 0.00 0.00 0.00 75 1010.8
20260904185203 78 0 0.0 0.0 0.00 0.00 0.00 75 1010.8
20260904184803 78 0 0.0 0.0 0.00 0.00 0.00 74 1010.8
20260904184403 78 0 0.0 0.0 0.00 0.00 0.00 74 1010.9
20260904184003 78 0 0.0 0.0 0.00 0.00 0.00 73 1010.5
20260904183603 79 0 0.0 0.0 0.00 0.00 0.00 73 1010.6
20260904183203 79 67 0.0 2.0 0.00 0.00 0.00 72 1010.7
20260904182803 80 70 0.0 2.0 0.00 0.00 0.00 70 1010.6
20260904182613 80 77 0.0 2.0 0.00 0.00 0.00 70 1010.8
20260904182003 80 90 0.0 2.0 0.00 0.00 0.00 70 1010.5
20260904181603 80 85 0.0 4.0 0.00 0.00 0.00 70 1010.4
20260904181203 81 84 1.0 4.0 0.00 0.00 0.00 69 1010.3
20260904181015 81 83 2.0 4.0 0.00 0.00 0.00 69 1010.4
20260904180615 81 86 2.0 4.0 0.00 0.00 0.00 68 1010.4
20260904180003 81 87 2.0 4.0 0.00 0.00 0.00 67 1010.4
20260904175603 81 90 1.0 2.0 0.00 0.00 0.00 68 1010.5
20260904175203 81 90 0.0 2.0 0.00 0.00 0.00 67 1010.1
20260904175012 81 90 1.0 2.0 0.00 0.00 0.00 67 1010.5
20260904174403 82 84 0.0 4.0 0.00 0.00 0.00 66 1010.1
20260904174003 82 90 1.0 4.0 0.00 0.00 0.00 65 1010.3
20260904173603 82 96 2.0 4.0 0.00 0.00 0.00 64 1010.4
20260904173203 83 96 2.0 4.0 0.00 0.00 0.00 64 1010.0
20260904172803 83 92 1.0 4.0 0.00 0.00 0.00 63 1010.4
20260904172403 83 89 2.0 4.0 0.00 0.00 0.00 63 1010.4
20260904172003 84 89 2.0 6.0 0.00 0.00 0.00 61 1010.1
20260904171603 84 87 2.0 8.0 0.00 0.00 0.00 60 1010.1
20260904171203 84 86 2.0 8.0 0.00 0.00 0.00 60 1010.4
20260904170803 84 82 2.0 8.0 0.00 0.00 0.00 60 1010.4
20260904170403 85 93 2.0 7.0 0.00 0.00 0.00 61 1010.2
20260904170003 85 97 3.0 7.0 0.00 0.00 0.00 60 1010.3
20260904165603 85 83 2.0 6.0 0.00 0.00 0.00 60 1010.5
20260904165414 85 81 2.0 6.0 0.00 0.00 0.00 60 1010.4
20260904165013 85 79 2.0 7.0 0.00 0.00 0.00 59 1010.8
20260904164403 86 84 3.0 7.0 0.00 0.00 0.00 58 1010.3
20260904164003 86 84 3.0 7.0 0.00 0.00 0.00 57 1010.5
20260904163816 86 84 3.0 7.0 0.00 0.00 0.00 56 1010.5
20260904163203 87 88 2.0 8.0 0.00 0.00 0.00 56 1010.7
20260904162803 87 87 4.0 8.0 0.00 0.00 0.00 54 1010.5
20260904162403 87 97 4.0 8.0 0.00 0.00 0.00 54 1010.5
20260904162003 87 89 4.0 9.0 0.00 0.00 0.00 54 1010.4
20260904161603 87 81 3.0 11.0 0.00 0.00 0.00 56 1010.6
20260904161203 87 74 5.0 11.0 0.00 0.00 0.00 55 1010.6
20260904160803 87 74 6.0 11.0 0.00 0.00 0.00 55 1010.5
20260904160616 88 73 4.0 11.0 0.00 0.00 0.00 55 1010.6
20260904160215 88 81 3.0 8.0 0.00 0.00 0.00 56 1010.8
20260904155815 88 81 2.0 8.0 0.00 0.00 0.00 60 1010.5
20260904155203 88 100 3.0 8.0 0.00 0.00 0.00 60 1010.6
20260904154803 88 102 5.0 8.0 0.00 0.00 0.00 60 1010.7
20260904154403 88 95 3.0 8.0 0.00 0.00 0.00 61 1010.8
20260904154003 88 83 4.0 9.0 0.00 0.00 0.00 61 1010.7
20260904153817 88 81 2.0 9.0 0.00 0.00 0.00 61 1010.8
20260904153203 88 86 5.0 11.0 0.00 0.00 0.00 60 1010.7
20260904152803 88 91 4.0 11.0 0.00 0.00 0.00 60 1010.6
20260904152615 88 93 6.0 11.0 0.00 0.00 0.00 60 1010.6
20260904152003 89 93 3.0 9.0 0.00 0.00 0.00 61 1010.7
20260904151603 89 90 3.0 9.0 0.00 0.00 0.00 59 1010.5
20260904151413 89 85 3.0 7.0 0.00 0.00 0.00 58 1010.6
20260904150803 89 90 4.0 11.0 0.00 0.00 0.00 58 1010.9
20260904150403 89 94 2.0 11.0 0.00 0.00 0.00 58 1010.9
20260904150004 89 88 6.0 11.0 0.00 0.00 0.00 57 1010.8
20260904145816 89 84 4.0 11.0 0.00 0.00 0.00 57 1011.0
20260904145203 89 90 4.0 8.0 0.00 0.00 0.00 57 1010.9
20260904145014 89 95 5.0 8.0 0.00 0.00 0.00 58 1011.0
20260904144403 89 95 2.0 9.0 0.00 0.00 0.00 57 1011.1
20260904144003 89 92 4.0 9.0 0.00 0.00 0.00 58 1011.1
20260904143603 89 85 6.0 11.0 0.00 0.00 0.00 59 1011.0
20260904143203 89 83 4.0 11.0 0.00 0.00 0.00 58 1010.9
20260904142803 88 88 5.0 11.0 0.00 0.00 0.00 59 1011.0
20260904142403 89 98 6.0 11.0 0.00 0.00 0.00 60 1011.3
20260904142004 89 94 4.0 9.0 0.00 0.00 0.00 61 1011.3
20260904141603 89 94 4.0 11.0 0.00 0.00 0.00 62 1011.1
20260904141203 89 90 5.0 11.0 0.00 0.00 0.00 63 1011.3
20260904140803 90 88 4.0 11.0 0.00 0.00 0.00 62 1011.1
20260904140403 90 83 3.0 8.0 0.00 0.00 0.00 62 1011.3
20260904140004 89 76 2.0 9.0 0.00 0.00 0.00 60 1011.3
20260904135603 89 73 4.0 13.0 0.00 0.00 0.00 59 1011.4
20260904135203 88 74 4.0 13.0 0.00 0.00 0.00 59 1011.5
20260904135015 88 76 4.0 13.0 0.00 0.00 0.00 61 1011.5
20260904134403 89 77 5.0 11.0 0.00 0.00 0.00 60 1011.4
20260904134003 89 83 4.0 11.0 0.00 0.00 0.00 61 1011.5
20260904133603 90 86 4.0 11.0 0.00 0.00 0.00 61 1011.6
20260904133203 89 89 4.0 11.0 0.00 0.00 0.00 63 1011.7
20260904132803 89 93 4.0 11.0 0.00 0.00 0.00 62 1011.5
20260904132403 90 89 5.0 11.0 0.00 0.00 0.00 63 1011.6
20260904132003 90 85 5.0 11.0 0.00 0.00 0.00 63 1011.6
20260904131603 90 90 4.0 11.0 0.00 0.00 0.00 64 1011.7
20260904131203 90 87 4.0 8.0 0.00 0.00 0.00 62 1011.5
20260904130803 91 78 4.0 9.0 0.00 0.00 0.00 62 1011.6
20260904130403 91 82 2.0 9.0 0.00 0.00 0.00 60 1011.6
20260904130003 91 86 2.0 7.0 0.00 0.00 0.00 59 1011.9
20260904125603 91 93 3.0 7.0 0.00 0.00 0.00 60 1011.6
20260904125203 91 100 2.0 7.0 0.00 0.00 0.00 60 1011.9
20260904124804 92 91 3.0 6.0 0.00 0.00 0.00 58 1011.8
20260904124403 92 86 2.0 6.0 0.00 0.00 0.00 59 1011.9
20260904124003 94 114 2.0 4.0 0.00 0.00 0.00 53 1012.0
20260904123814 94 131 1.0 4.0 0.00 0.00 0.00 45 1012.0
20260904123203 94 155 2.0 6.0 0.00 0.00 0.00 49 1012.3
20260904123017 94 157 1.0 6.0 0.00 0.00 0.00 48 1011.9
20260904122403 95 144 2.0 4.0 0.00 0.00 0.00 49 1012.1
20260904122003 94 119 1.0 4.0 0.00 0.00 0.00 47 1011.9
20260904121603 93 118 3.0 4.0 0.00 0.00 0.00 47 1012.2
20260904121203 94 141 2.0 4.0 0.00 0.00 0.00 49 1012.1
20260904120803 94 186 1.0 4.0 0.00 0.00 0.00 46 1012.0
20260904120403 93 174 1.0 4.0 0.00 0.00 0.00 51 1012.2
20260904120003 94 158 2.0 4.0 0.00 0.00 0.00 49 1012.1
20260904115603 93 175 2.0 4.0 0.00 0.00 0.00 48 1012.1
20260904115203 92 169 1.0 6.0 0.00 0.00 0.00 50 1012.3
20260904114803 92 168 2.0 6.0 0.00 0.00 0.00 49 1012.1
20260904114615 93 156 2.0 6.0 0.00 0.00 0.00 49 1012.2
20260904114003 92 166 4.0 7.0 0.00 0.00 0.00 50 1012.2
20260904113603 92 114 1.0 7.0 0.00 0.00 0.00 53 1012.2
20260904113203 91 96 3.0 7.0 0.00 0.00 0.00 54 1012.4
20260904112803 91 93 3.0 7.0 0.00 0.00 0.00 54 1012.3
20260904112403 92 94 2.0 4.0 0.00 0.00 0.00 55 1012.4
20260904112003 92 169 1.0 4.0 0.00 0.00 0.00 56 1012.6
20260904111816 92 152 2.0 4.0 0.00 0.00 0.00 54 1012.5
20260904111415 92 214 1.0 4.0 0.00 0.00 0.00 54 1012.6
20260904110803 93 223 2.0 4.0 0.00 0.00 0.00 55 1012.9
20260904110403 93 180 1.0 6.0 0.00 0.00 0.00 52 1012.6
20260904110004 93 82 2.0 6.0 0.00 0.00 0.00 52 1012.5
20260904105603 92 80 1.0 7.0 0.00 0.00 0.00 55 1012.7
20260904105413 91 84 3.0 7.0 0.00 0.00 0.00 53 1012.5
20260904104803 91 88 2.0 4.0 0.00 0.00 0.00 56 1012.6
20260904104403 91 92 2.0 4.0 0.00 0.00 0.00 56 1012.8
20260904104003 92 183 2.0 4.0 0.00 0.00 0.00 53 1012.7
20260904103604 91 178 1.0 4.0 0.00 0.00 0.00 52 1012.8
20260904103203 92 129 2.0 4.0 0.00 0.00 0.00 55 1012.8
20260904102803 92 95 2.0 4.0 0.00 0.00 0.00 54 1012.9
20260904102403 90 88 2.0 4.0 0.00 0.00 0.00 56 1013.0
20260904102003 91 100 2.0 4.0 0.00 0.00 0.00 56 1013.1
20260904101603 90 178 1.0 4.0 0.00 0.00 0.00 56 1013.0
20260904101203 90 141 2.0 4.0 0.00 0.00 0.00 54 1012.8
20260904100803 91 133 1.0 4.0 0.00 0.00 0.00 54 1013.0
20260904100403 90 144 1.0 4.0 0.00 0.00 0.00 55 1012.9
20260904095603 89 119 2.0 4.0 0.00 0.00 0.00 56 1013.0
20260904095203 89 91 2.0 4.0 0.00 0.00 0.00 56 1013.0
20260904094803 89 75 2.0 4.0 0.00 0.00 0.00 55 1013.2
20260904094403 89 81 2.0 4.0 0.00 0.00 0.00 56 1013.2
20260904094003 89 100 1.0 6.0 0.00 0.00 0.00 57 1013.1
20260904093817 88 94 1.0 6.0 0.00 0.00 0.00 56 1013.2
20260904093203 88 86 2.0 4.0 0.00 0.00 0.00 56 1013.4
20260904092803 88 104 2.0 6.0 0.00 0.00 0.00 57 1013.3
20260904092403 88 94 2.0 6.0 0.00 0.00 0.00 57 1013.4
20260904092214 88 102 1.0 6.0 0.00 0.00 0.00 58 1013.3
20260904091603 89 108 1.0 2.0 0.00 0.00 0.00 58 1013.4
20260904091203 89 119 2.0 2.0 0.00 0.00 0.00 56 1013.4
20260904090804 88 123 2.0 2.0 0.00 0.00 0.00 59 1013.5
20260904090403 88 108 1.0 4.0 0.00 0.00 0.00 60 1013.1
20260904090003 87 123 0.0 4.0 0.00 0.00 0.00 60 1013.0
20260904085603 87 117 2.0 4.0 0.00 0.00 0.00 59 1013.3
20260904085203 86 109 2.0 4.0 0.00 0.00 0.00 60 1013.4
20260904084803 86 94 2.0 4.0 0.00 0.00 0.00 60 1013.2
20260904084614 86 87 2.0 4.0 0.00 0.00 0.00 59 1013.2
20260904084213 86 85 2.0 4.0 0.00 0.00 0.00 61 1013.3
20260904083603 87 102 2.0 4.0 0.00 0.00 0.00 57 1013.6
20260904083203 87 95 0.0 4.0 0.00 0.00 0.00 60 1013.3
20260904082803 86 67 0.0 2.0 0.00 0.00 0.00 57 1013.5
20260904082403 86 29 2.0 4.0 0.00 0.00 0.00 59 1013.4
20260904082003 84 28 0.0 4.0 0.00 0.00 0.00 60 1013.4
20260904081603 83 21 2.0 4.0 0.00 0.00 0.00 63 1013.1
20260904081203 86 11 2.0 4.0 0.00 0.00 0.00 61 1013.2
20260904080803 86 356 1.0 2.0 0.00 0.00 0.00 58 1013.2
20260904080403 85 7 0.0 2.0 0.00 0.00 0.00 60 1013.6
20260904080003 85 29 1.0 2.0 0.00 0.00 0.00 60 1013.4
20260904075603 84 30 1.0 2.0 0.00 0.00 0.00 63 1013.3
20260904075203 83 13 1.0 4.0 0.00 0.00 0.00 61 1013.1
20260904074803 82 20 1.0 4.0 0.00 0.00 0.00 62 1013.2
20260904074403 81 23 2.0 4.0 0.00 0.00 0.00 63 1013.1
20260904074003 82 16 2.0 4.0 0.00 0.00 0.00 63 1013.3
20260904073603 82 352 1.0 2.0 0.00 0.00 0.00 62 1013.3
20260904073204 82 336 1.0 2.0 0.00 0.00 0.00 63 1013.2
20260904072803 81 330 0.0 4.0 0.00 0.00 0.00 64 1013.0
20260904072403 81 317 1.0 4.0 0.00 0.00 0.00 65 1013.1
20260904072003 81 345 2.0 2.0 0.00 0.00 0.00 64 1013.1
20260904071603 80 9 0.0 2.0 0.00 0.00 0.00 66 1013.3
20260904071203 81 15 1.0 2.0 0.00 0.00 0.00 65 1013.2
20260904070803 80 10 0.0 2.0 0.00 0.00 0.00 66 1013.2
20260904070403 79 5 1.0 4.0 0.00 0.00 0.00 67 1013.3
20260904070003 79 13 1.0 4.0 0.00 0.00 0.00 67 1013.2
20260904065603 78 10 1.0 4.0 0.00 0.00 0.00 68 1012.9
20260904065203 78 13 2.0 4.0 0.00 0.00 0.00 69 1013.3
20260904064803 78 342 1.0 2.0 0.00 0.00 0.00 68 1013.2
20260904064403 78 320 1.0 2.0 0.00 0.00 0.00 69 1013.4
20260904064003 77 300 0.0 2.0 0.00 0.00 0.00 72 1013.2
20260904063603 76 311 1.0 2.0 0.00 0.00 0.00 73 1013.1
20260904063203 76 311 1.0 2.0 0.00 0.00 0.00 74 1013.0
20260904062803 75 299 0.0 4.0 0.00 0.00 0.00 74 1013.0
20260904062404 75 285 1.0 4.0 0.00 0.00 0.00 76 1012.9
20260904062004 75 268 1.0 4.0 0.00 0.00 0.00 76 1013.0
20260904061603 74 266 1.0 4.0 0.00 0.00 0.00 76 1013.0
20260904061203 74 270 0.0 2.0 0.00 0.00 0.00 77 1012.9
20260904060803 73 270 0.0 2.0 0.00 0.00 0.00 78 1013.2
20260904060403 73 267 1.0 2.0 0.00 0.00 0.00 79 1012.9
20260904060003 72 281 0.0 4.0 0.00 0.00 0.00 81 1013.1
20260904055603 72 282 1.0 4.0 0.00 0.00 0.00 81 1012.9
20260904055203 72 291 0.0 4.0 0.00 0.00 0.00 81 1013.0
20260904055016 72 292 2.0 4.0 0.00 0.00 0.00 81 1013.0
20260904054403 71 311 2.0 4.0 0.00 0.00 0.00 82 1013.0
20260904054003 71 313 0.0 2.0 0.00 0.00 0.00 84 1013.0
20260904053603 71 291 0.0 2.0 0.00 0.00 0.00 84 1012.9
20260904053203 70 289 0.0 2.0 0.00 0.00 0.00 85 1013.1
20260904052803 69 287 1.0 2.0 0.00 0.00 0.00 87 1012.9
20260904052403 69 0 0.0 0.0 0.00 0.00 0.00 87 1013.0
20260904052003 69 0 0.0 0.0 0.00 0.00 0.00 88 1013.1
20260904051603 69 270 0.0 2.0 0.00 0.00 0.00 88 1012.8
20260904051203 68 270 0.0 2.0 0.00 0.00 0.00 88 1012.9
20260904050803 68 270 0.0 2.0 0.00 0.00 0.00 89 1012.6
20260904050403 67 0 0.0 0.0 0.00 0.00 0.00 91 1012.8
20260904050214 67 0 0.0 0.0 0.00 0.00 0.00 91 1012.8
20260904045603 67 0 0.0 0.0 0.00 0.00 0.00 90 1012.7
20260904045203 67 0 0.0 0.0 0.00 0.00 0.00 90 1012.5
20260904045017 67 0 0.0 0.0 0.00 0.00 0.00 90 1012.7
20260904044403 67 0 0.0 0.0 0.00 0.00 0.00 89 1012.6
20260904044003 67 0 0.0 0.0 0.00 0.00 0.00 89 1012.6
20260904043603 67 0 0.0 0.0 0.00 0.00 0.00 89 1012.4
20260904043203 68 274 0.0 2.0 0.00 0.00 0.00 88 1012.4
20260904042803 68 279 0.0 2.0 0.00 0.00 0.00 88 1012.8
20260904042403 68 281 0.0 2.0 0.00 0.00 0.00 87 1012.5
20260904042003 68 0 0.0 0.0 0.00 0.00 0.00 87 1012.5
20260904041603 68 0 0.0 0.0 0.00 0.00 0.00 86 1012.4
20260904041203 68 0 0.0 0.0 0.00 0.00 0.00 87 1012.5
20260904040803 68 0 0.0 0.0 0.00 0.00 0.00 87 1012.5
20260904040615 68 0 0.0 0.0 0.00 0.00 0.00 87 1012.4
20260904040215 68 0 0.0 0.0 0.00 0.00 0.00 88 1012.5
20260904035603 68 0 0.0 0.0 0.00 0.00 0.00 88 1012.5
20260904035203 68 0 0.0 0.0 0.00 0.00 0.00 88 1012.5
20260904034803 68 0 0.0 0.0 0.00 0.00 0.00 87 1012.5
20260904034403 68 0 0.0 0.0 0.00 0.00 0.00 87 1012.5
20260904034003 68 0 0.0 0.0 0.00 0.00 0.00 87 1012.5
20260904033603 68 0 0.0 0.0 0.00 0.00 0.00 86 1012.5
20260904033203 69 0 0.0 0.0 0.00 0.00 0.00 86 1012.3
20260904032803 69 0 0.0 0.0 0.00 0.00 0.00 85 1012.5
20260904032403 70 0 0.0 0.0 0.00 0.00 0.00 84 1012.5
20260904032213 70 0 0.0 0.0 0.00 0.00 0.00 84 1012.6
20260904031603 70 0 0.0 0.0 0.00 0.00 0.00 83 1012.5
20260904031203 69 0 0.0 0.0 0.00 0.00 0.00 84 1012.5
20260904030803 69 0 0.0 0.0 0.00 0.00 0.00 85 1012.3
20260904030616 69 0 0.0 0.0 0.00 0.00 0.00 85 1012.5
20260904030004 70 0 0.0 0.0 0.00 0.00 0.00 83 1012.4